Location: Cortada Guamacho
(10.5667°N, 67.0833°W)
Time: 16:28:50
(UTC+00:00)

SWIFT - Pass Details

Date: 10 July 2022
Orbit: 539 x 553 km, 20.6° (Epoch: 18 August)

Event Time Altitude Azimuth Distance (km) Brightness Sun altitude
Rises 00:32:28 0° 289° (WNW) 2,709 7.3 -22.4°
Reaches altitude 10° 00:35:11 10° 305° (NW) 1,815 6.1 -23.0°
Maximum altitude 00:38:26 21° 356° (N) 1,247 4.4 -23.7°
Enters shadow 00:40:05 17° 27° (NNE) 1,414 4.4 -24.0°
